Estación de Polizones INIA

Ultimos registro cada 15 minutos 63
Estación Fecha / Hora Temperatura Humedad Lluvia Velocidad Dirección Radiación Presion
63 Polizones INIA 07-05-2026 15:30 7,9 80,9 0 0,2 59 84 1008
62 Polizones INIA 07-05-2026 15:15 8 79,6 0 0 0 87 1008
61 Polizones INIA 07-05-2026 15:00 8 78,6 0 0 0 111 1009
60 Polizones INIA 07-05-2026 14:45 8,1 79,4 0 0 0 113 1009
59 Polizones INIA 07-05-2026 14:30 8,5 76,2 0 0,1 108 113 1009
58 Polizones INIA 07-05-2026 14:15 8,6 70,7 0 1,6 198 104 1009
57 Polizones INIA 07-05-2026 14:00 8,8 70,6 0 1,7 198 124 1008
56 Polizones INIA 07-05-2026 13:45 8,9 70,1 0 0,7 212 163 1009
55 Polizones INIA 07-05-2026 13:30 9,1 71,3 0 1 234 215 1009
54 Polizones INIA 07-05-2026 13:15 9,2 68 0 2,1 228 357 1010
53 Polizones INIA 07-05-2026 13:00 9 66,6 0 1,9 215 345 1010
52 Polizones INIA 07-05-2026 12:45 8,9 71,6 0 1,3 213 450 1010
51 Polizones INIA 07-05-2026 12:30 8,2 73,9 0 1,1 230 293 1010
50 Polizones INIA 07-05-2026 12:15 8,1 75,9 0 0,5 229 270 1010
49 Polizones INIA 07-05-2026 12:00 7,7 80,1 0 0,9 230 244 1010
48 Polizones INIA 07-05-2026 11:45 7,6 81,3 0 0,9 246 211 1010
47 Polizones INIA 07-05-2026 11:30 7,6 78 0 0,4 224 191 1010
46 Polizones INIA 07-05-2026 11:15 7,4 77,5 0 0,2 180 144 1010
45 Polizones INIA 07-05-2026 11:00 7,2 78,2 0 0,7 207 152 1010
44 Polizones INIA 07-05-2026 10:45 7,5 77,4 0 1,3 189 182 1010
43 Polizones INIA 07-05-2026 10:30 7,6 75,9 0 0,1 162 226 1010
42 Polizones INIA 07-05-2026 10:15 7,3 80,1 0 0,1 184 216 1010
41 Polizones INIA 07-05-2026 10:00 6,6 86,1 0 0 0 165 1010
40 Polizones INIA 07-05-2026 09:45 6,3 84,9 0 0 328 246 1010
39 Polizones INIA 07-05-2026 09:30 5,7 88,4 0 0 324 167 1010
38 Polizones INIA 07-05-2026 09:15 5,1 91,9 0 0 0 71 1010
37 Polizones INIA 07-05-2026 09:00 4,9 92,3 0 0,2 214 64 1010
36 Polizones INIA 07-05-2026 08:45 4 95,6 0 0,1 212 44 1010
35 Polizones INIA 07-05-2026 08:30 3,6 95,5 0 0 0 34 1009
34 Polizones INIA 07-05-2026 08:15 3,3 95,5 0 0 0 17 1009
33 Polizones INIA 07-05-2026 08:00 3,9 94,8 0 0 0 5 1009
32 Polizones INIA 07-05-2026 07:45 4 95,8 0 0 300 2 1009
31 Polizones INIA 07-05-2026 07:30 3,8 96 0 0 0 0 1009
30 Polizones INIA 07-05-2026 07:15 3,6 96,3 0 0 0 0 1009
29 Polizones INIA 07-05-2026 07:00 3,8 96 0 0 0 0 1009
28 Polizones INIA 07-05-2026 06:45 3,7 95,8 0 0 0 0 1009
27 Polizones INIA 07-05-2026 06:30 3,6 95,2 0 0 0 0 1009
26 Polizones INIA 07-05-2026 06:15 3,1 95 0 0 0 0 1008
25 Polizones INIA 07-05-2026 06:00 3,1 93,7 0 0 0 0 1008
24 Polizones INIA 07-05-2026 05:45 3,7 92,5 0 0 0 0 1008
23 Polizones INIA 07-05-2026 05:30 4,8 90 0 0 0 0 1009
22 Polizones INIA 07-05-2026 05:15 5,2 89,1 0,1 0,1 204 0 1009
21 Polizones INIA 07-05-2026 05:00 5,4 89,9 0 0 0 0 1008
20 Polizones INIA 07-05-2026 04:45 5,6 86,6 0,1 0,3 160 0 1008
19 Polizones INIA 07-05-2026 04:30 5,9 85,8 0,4 1,7 181 0 1008
18 Polizones INIA 07-05-2026 04:15 6 83,9 0 0 0 0 1008
17 Polizones INIA 07-05-2026 04:00 6,1 83,7 0 0,1 224 0 1008
16 Polizones INIA 07-05-2026 03:45 6,1 82,3 0 0,8 202 0 1008
15 Polizones INIA 07-05-2026 03:30 5,9 83,4 0 0,1 198 0 1008
14 Polizones INIA 07-05-2026 03:15 5,9 85,3 0 0 0 0 1008
13 Polizones INIA 07-05-2026 03:00 6 83,1 0 0 0 0 1008
12 Polizones INIA 07-05-2026 02:45 6 83,4 0 0,6 209 0 1008
11 Polizones INIA 07-05-2026 02:30 5,8 82,3 0 1 202 0 1007
10 Polizones INIA 07-05-2026 02:15 5,5 83,1 0 0 208 0 1007
9 Polizones INIA 07-05-2026 02:00 6,1 77,7 0 0 0 0 1007
8 Polizones INIA 07-05-2026 01:45 6,5 75,8 0 0,6 205 0 1007
7 Polizones INIA 07-05-2026 01:30 7 74,4 0 1,4 206 0 1007
6 Polizones INIA 07-05-2026 01:15 7,4 70,3 0 1,7 201 0 1007
5 Polizones INIA 07-05-2026 01:00 7,5 71,6 0 1,9 197 0 1006
4 Polizones INIA 07-05-2026 00:45 7,7 76,4 0 1,7 195 0 1006
3 Polizones INIA 07-05-2026 00:30 7,8 75,9 0 1,8 195 0 1006
2 Polizones INIA 07-05-2026 00:15 7,8 76,5 0 2,5 199 0 1006
1 Polizones INIA 07-05-2026 00:00 7,9 77,3 0 2 208 0 1006